EDT,Max TemperatureF,Mean TemperatureF,Min TemperatureF,Max Dew PointF,MeanDew PointF,Min DewpointF,Max Humidity, Mean Humidity, Min Humidity, Max Sea Level PressureIn, Mean Sea Level PressureIn, Min Sea Level PressureIn, Max VisibilityMiles, Mean VisibilityMiles, Min VisibilityMiles, Max Wind SpeedMPH, Mean Wind SpeedMPH, Max Gust SpeedMPH,PrecipitationIn, CloudCover, Events, WindDirDegrees
2013-3-1,46,42,39,29,27,24,63,54,47,29.87,29.80,29.74,10,10,10,15,11,,0.00,7,,286
2013-3-2,39,36,32,26,22,19,60,55,48,29.89,29.85,29.81,10,10,10,16,12,24,0.00,7,,289
2013-3-3,41,36,30,20,18,17,64,52,38,29.91,29.85,29.79,10,10,10,21,14,26,0.00,4,,290
2013-3-4,45,38,28,20,16,15,66,46,33,30.04,29.97,29.91,10,10,10,18,13,29,0.00,0,,286
2013-3-5,44,34,24,32,23,17,87,62,38,30.09,29.99,29.81,10,9,4,14,7,21,0.06,5,Rain-Snow,137
2013-3-6,43,39,35,39,35,29,89,84,62,29.92,29.65,29.44,10,5,2,39,22,53,1.28,8,Rain-Snow,10
2013-3-7,50,44,39,31,27,24,65,53,38,30.12,30.05,29.93,10,10,10,21,17,32,0.00,4,,319
2013-3-8,48,42,37,30,26,24,70,52,42,30.23,30.14,30.09,10,10,10,24,15,36,0.00,5,,310
2013-3-9,57,44,32,28,24,21,75,49,27,30.32,30.28,30.23,10,10,10,15,11,,0.00,1,,331
2013-3-10,54,41,28,39,31,24,89,69,34,30.35,30.30,30.27,10,10,9,13,4,,0.00,3,,126
2013-3-11,57,49,41,46,42,38,93,85,64,30.28,30.17,30.01,10,7,0,14,7,26,0.00,7,Fog,129
2013-3-12,62,53,44,57,47,31,93,81,60,29.99,29.82,29.73,10,7,1,24,12,47,0.63,6,Rain,166
2013-3-13,54,41,30,32,27,17,85,54,36,30.06,29.96,29.89,10,10,8,24,10,30,0.00,2,,286
2013-3-14,48,40,33,17,15,12,48,38,25,30.13,30.08,30.02,10,10,10,23,17,33,0.00,2,,279
2013-3-15,55,41,27,32,22,16,75,46,27,30.10,29.98,29.81,10,10,10,15,8,23,0.00,3,,223
2013-3-16,53,44,37,45,38,31,83,75,63,29.90,29.77,29.64,10,10,6,16,5,25,0.01,5,Rain,78
2013-3-17,42,40,37,34,32,28,87,77,57,30.28,30.14,29.91,10,8,4,15,9,,0.03,8,Rain,16
2013-3-18,42,38,33,40,34,27,93,85,70,30.32,30.15,29.87,10,5,0,14,8,,0.23,8,Fog-Rain-Snow,46
2013-3-19,59,48,39,40,34,9,93,72,18,29.91,29.81,29.74,10,9,4,18,7,30,0.03,5,Rain,267
2013-3-20,53,42,30,34,17,7,66,35,20,30.02,29.92,29.77,10,10,10,16,10,23,0.00,2,,225
2013-3-21,46,38,30,27,17,8,67,45,32,29.91,29.79,29.74,10,10,8,21,15,30,0.00,4,Snow,312
2013-3-22,46,37,28,22,15,8,72,45,30,30.01,29.94,29.90,10,10,10,20,10,26,0.00,1,,245
2013-3-23,54,40,26,27,23,19,79,56,27,30.04,29.99,29.91,10,10,10,18,5,23,0.00,0,,287
2013-3-24,43,38,33,31,26,21,89,66,45,30.01,29.83,29.66,10,8,2,14,8,18,0.08,6,Rain-Snow,38
2013-3-25,39,36,33,34,33,30,93,87,81,29.70,29.57,29.50,10,6,2,14,9,,0.35,8,Rain-Snow,316
2013-3-26,48,41,34,34,30,25,89,68,44,29.98,29.84,29.71,10,10,7,14,9,20,0.00,4,,279
2013-3-27,52,45,39,28,26,23,62,49,35,30.11,30.04,29.98,10,10,8,21,13,31,0.00,4,Rain,281
2013-3-28,48,42,37,28,27,25,62,51,42,30.22,30.13,30.10,10,10,10,20,12,25,0.00,5,,283
2013-3-29,55,45,35,31,29,27,82,56,38,30.26,30.21,30.15,10,10,10,15,9,,0.00,5,,267
2013-3-30,57,45,35,35,30,26,79,56,34,30.22,30.18,30.13,10,10,10,10,3,,0.00,4,,148
2013-3-31,57,50,44,50,43,30,93,79,50,30.14,29.91,29.76,10,7,1,15,7,24,0.07,5,Rain,151